QPF
0.02 0.03 0.05 0.04 0.02 0.02 0.01 0.01 0.01 0.02 0.04 0.06 0.07 0.10 0.09 0.09 0.09 0.06 0.04 0.03 0.04 0.05 0.05 0.09 0.10 0.10 0.11 0.13 0.15 0.21 0.24 0.26 0.24 0.20 0.20 0.22 0.24 0.25 0.23 0.24 0.25 0.27 0.25 0.22
0.03 0.05 0.06 0.04 0.03 0.02 0.01 0.02 0.02 0.03 0.04 0.06 0.11 0.13 0.08 0.05 0.05 0.04 0.04 0.05 0.05 0.08 0.12 0.14 0.16 0.19 0.23 0.25 0.28 0.38 0.43 0.44 0.46 0.46 0.45 0.40 0.36 0.37 0.40 0.40 0.39 0.36 0.34 0.32
0.07 0.06 0.07 0.05 0.04 0.03 0.02 0.02 0.02 0.03 0.05 0.06 0.08 0.09 0.06 0.04 0.03 0.03 0.04 0.04 0.06 0.08 0.12 0.16 0.19 0.21 0.28 0.34 0.37 0.37 0.38 0.38 0.40 0.42 0.40 0.37 0.37 0.37 0.41 0.44 0.43 0.40 0.41 0.40
0.12 0.13 0.12 0.07 0.06 0.07 0.07 0.07 0.06 0.06 0.09 0.12 0.11 0.09 0.07 0.05 0.03 0.03 0.03 0.04 0.05 0.07 0.10 0.14 0.17 0.21 0.26 0.29 0.26 0.26 0.26 0.21 0.17 0.16 0.16 0.16 0.19 0.23 0.26 0.31 0.36 0.36 0.35 0.28
0.17 0.16 0.16 0.14 0.11 0.12 0.13 0.15 0.10 0.10 0.16 0.16 0.13 0.10 0.08 0.05 0.03 0.03 0.04 0.05 0.05 0.06 0.08 0.09 0.10 0.12 0.13 0.14 0.13 0.13 0.12 0.12 0.08 0.06 0.05 0.05 0.06 0.10 0.15 0.19 0.22 0.21 0.21 0.19
0.20 0.21 0.18 0.18 0.16 0.13 0.15 0.23 0.23 0.18 0.18 0.14 0.11 0.09 0.07 0.05 0.03 0.03 0.03 0.03 0.03 0.04 0.04 0.04 0.04 0.04 0.05 0.06 0.07 0.07 0.07 0.07 0.05 0.04 0.04 0.05 0.07 0.08 0.08 0.09 0.10 0.10 0.11 0.10
0.19 0.23 0.26 0.22 0.15 0.12 0.16 0.22 0.31 0.35 0.33 0.22 0.13 0.07 0.05 0.04 0.02 0.02 0.02 0.02 0.02 0.02 0.02 0.02 0.02 0.01 0.01 0.02 0.02 0.02 0.02 0.02 0.02 0.02 0.03 0.03 0.04 0.04 0.03 0.04 0.04 0.04 0.03 0.03
0.23 0.29 0.31 0.26 0.21 0.20 0.21 0.21 0.31 0.38 0.40 0.32 0.22 0.11 0.06 0.03 0.02 0.01 0.01 0.01 0.01 0.01 0.01 0.00 0.00 0.00 0.00 0.00 0.00 0.01 0.01 0.01 0.01 0.00 0.00 0.00 0.00 0.01 0.01 0.01 0.01 0.01 0.01 0.01
0.30 0.32 0.29 0.23 0.24 0.27 0.39 0.49 0.51 0.51 0.50 0.35 0.24 0.13 0.06 0.03 0.01 0.00 0.00 0.00 0.00 0.00 0.00 0.00 0.00 0.00 0.00 0.00 0.00 0.00 0.00 0.00 0.00 0.00 0.00 0.00 0.00 0.00 0.00 0.00 0.00 0.00 0.00 0.00
0.27 0.31 0.28 0.24 0.24 0.32 0.40 0.54 0.58 0.45 0.33 0.21 0.13 0.08 0.04 0.01 0.00 0.00 0.00 0.00 0.00 0.00 0.00 0.00 0.00 0.00 0.00 0.00 0.00 0.00 0.00 0.00 0.00 0.00 0.00 0.00 0.00 0.00 0.00 0.00 0.00 0.00 0.00 0.00
0.26 0.32 0.31 0.27 0.27 0.32 0.37 0.38 0.45 0.29 0.17 0.11 0.07 0.03 0.01 0.00 0.00 0.00 0.00 0.00 0.00 0.00 0.00 0.00 0.00 0.00 0.00 0.00 0.00 0.00 0.00 0.00 0.00 0.00 0.00 0.00 0.00 0.00 0.00 0.00 0.00 0.00 0.00 0.00
0.26 0.30 0.42 0.38 0.31 0.31 0.36 0.33 0.25 0.15 0.09 0.07 0.04 0.01 0.00 0.00 0.00 0.00 0.00 0.00 0.00 0.00 0.00 0.00 0.00 0.00 0.00 0.00 0.00 0.00 0.00 0.00 0.00 0.00 0.00 0.00 0.00 0.00 0.00 0.00 0.00 0.00 0.00 0.00
0.18 0.24 0.39 0.35 0.25 0.19 0.15 0.13 0.12 0.08 0.05 0.04 0.03 0.02 0.01 0.00 0.00 0.00 0.00 0.00 0.00 0.00 0.00 0.00 0.00 0.00 0.00 0.00 0.00 0.00 0.00 0.00 0.00 0.00 0.00 0.00 0.00 0.00 0.00 0.00 0.00 0.00 0.00 0.00
0.15 0.19 0.22 0.20 0.15 0.10 0.06 0.04 0.04 0.04 0.03 0.02 0.02 0.01 0.01 0.00 0.00 0.00 0.00 0.00 0.00 0.00 0.00 0.00 0.00 0.00 0.00 0.00 0.00 0.00 0.00 0.00 0.00 0.00 0.00 0.00 0.00 0.00 0.00 0.00 0.00 0.00 0.00 0.00
0.13 0.12 0.10 0.08 0.06 0.05 0.04 0.03 0.02 0.02 0.02 0.01 0.01 0.01 0.00 0.00 0.00 0.00 0.00 0.00 0.00 0.00 0.00 0.00 0.00 0.00 0.00 0.00 0.00 0.00 0.00 0.00 0.00 0.00 0.00 0.00 0.00 0.00 0.00 0.00 0.00 0.00 0.00 0.00
0.10 0.07 0.07 0.08 0.04 0.03 0.02 0.02 0.02 0.01 0.01 0.01 0.00 0.00 0.00 0.00 0.00 0.00 0.00 0.00 0.00 0.00 0.00 0.00 0.00 0.00 0.00 0.00 0.00 0.00 0.00 0.00 0.00 0.00 0.00 0.00 0.00 0.00 0.00 0.00 0.00 0.00 0.00 0.00
0.07 0.05 0.05 0.04 0.02 0.02 0.02 0.01 0.01 0.01 0.01 0.00 0.00 0.00 0.00 0.00 0.00 0.00 0.00 0.00 0.00 0.00 0.00 0.00 0.00 0.00 0.00 0.00 0.00 0.00 0.00 0.00 0.00 0.00 0.00 0.00 0.00 0.00 0.00 0.00 0.00 0.00 0.00 0.00
0.04 0.03 0.03 0.02 0.02 0.01 0.01 0.01 0.00 0.00 0.00 0.00 0.00 0.00 0.00 0.00 0.00 0.00 0.00 0.00 0.00 0.00 0.00 0.00 0.00 0.00 0.00 0.00 0.00 0.00 0.00 0.00 0.00 0.00 0.00 0.00 0.00 0.00 0.00 0.00 0.00 0.00 0.00 0.00
0.03 0.02 0.02 0.02 0.01 0.01 0.01 0.00 0.00 0.00 0.00 0.00 0.00 0.00 0.00 0.00 0.00 0.00 0.00 0.01 0.01 0.01 0.00 0.00 0.00 0.00 0.00 0.00 0.00 0.00 0.00 0.00 0.00 0.00 0.00 0.00 0.00 0.00 0.00 0.00 0.00 0.00 0.00 0.00
0.02 0.01 0.01 0.01 0.01 0.01 0.00 0.00 0.00 0.00 0.00 0.00 0.01 0.01 0.01 0.01 0.00 0.00 0.01 0.01 0.01 0.01 0.00 0.00 0.00 0.00 0.00 0.00 0.00 0.00 0.00 0.00 0.00 0.00 0.00 0.00 0.00 0.00 0.00 0.00 0.00 0.00 0.00 0.00
0.01 0.01 0.00 0.00 0.00 0.00 0.00 0.00 0.00 0.00 0.01 0.00 0.00 0.01 0.01 0.01 0.01 0.01 0.01 0.01 0.01 0.00 0.00 0.00 0.00 0.00 0.00 0.00 0.00 0.00 0.00 0.00 0.00 0.00 0.00 0.00 0.00 0.00 0.00 0.00 0.00 0.00 0.00 0.00
0.01 0.01 0.00 0.00 0.00 0.00 0.00 0.00 0.00 0.00 0.00 0.00 0.00 0.00 0.00 0.01 0.01 0.01 0.01 0.01 0.01 0.00 0.00 0.00 0.00 0.01 0.01 0.01 0.00 0.00 0.00 0.00 0.00 0.00 0.00 0.00 0.00 0.00 0.00 0.00 0.00 0.00 0.00 0.00
0.00 0.00 0.00 0.00 0.00 0.00 0.01 0.01 0.01 0.01 0.01 0.00 0.00 0.00 0.00 0.01 0.01 0.01 0.01 0.01 0.01 0.00 0.01 0.01 0.01 0.01 0.01 0.00 0.00 0.00 0.00 0.00 0.00 0.00 0.00 0.00 0.00 0.00 0.00 0.00 0.00 0.00 0.01 0.01
0.00 0.00 0.00 0.00 0.00 0.00 0.00 0.00 0.00 0.00 0.00 0.00 0.00 0.00 0.00 0.00 0.00 0.01 0.01 0.01 0.01 0.01 0.01 0.00 0.00 0.00 0.00 0.00 0.00 0.00 0.00 0.00 0.00 0.00 0.00 0.00 0.00 0.00 0.00 0.00 0.00 0.00 0.00 0.01
0.00 0.00 0.01 0.00 0.00 0.00 0.00 0.00 0.00 0.00 0.00 0.01 0.01 0.01 0.00 0.00 0.00 0.01 0.01 0.01 0.01 0.01 0.00 0.00 0.00 0.00 0.00 0.00 0.00 0.00 0.00 0.00 0.00 0.00 0.00 0.00 0.00 0.00 0.00 0.00 0.00 0.00 0.00 0.00
0.00 0.01 0.01 0.01 0.00 0.00 0.00 0.00 0.00 0.00 0.01 0.01 0.01 0.01 0.01 0.00 0.00 0.01 0.01 0.01 0.01 0.02 0.02 0.01 0.01 0.01 0.01 0.00 0.00 0.00 0.00 0.00 0.00 0.00 0.00 0.00 0.00 0.00 0.00 0.00 0.00 0.00 0.00 0.00
0.01 0.00 0.00 0.00 0.00 0.00 0.00 0.00 0.01 0.01 0.01 0.01 0.01 0.01 0.01 0.00 0.01 0.01 0.01 0.01 0.02 0.03 0.02 0.02 0.01 0.00 0.00 0.00 0.00 0.00 0.00 0.00 0.00 0.00 0.00 0.00 0.00 0.00 0.00 0.00 0.00 0.00 0.00 0.00
MSLP
1009.41 1009.43 1009.52 1009.69 1009.91 1010.15 1010.36 1010.47 1010.47 1010.33 1010.08 1009.76 1009.44 1009.19 1009.05 1009.08 1009.27 1009.62 1010.07 1010.57 1011.06 1011.49 1011.84 1012.11 1012.33 1012.51 1012.72 1012.97 1013.29 1013.66 1014.08 1014.49 1014.86 1015.16 1015.35 1015.42 1015.39 1015.29 1015.15 1015.01 1014.90 1014.84 1014.86 1014.94
1010.15 1010.13 1010.10 1010.06 1010.02 1009.96 1009.87 1009.74 1009.56 1009.34 1009.12 1008.92 1008.79 1008.77 1008.88 1009.13 1009.50 1009.96 1010.46 1010.95 1011.40 1011.77 1012.06 1012.29 1012.48 1012.68 1012.91 1013.21 1013.57 1013.98 1014.41 1014.83 1015.19 1015.46 1015.61 1015.65 1015.58 1015.43 1015.25 1015.07 1014.91 1014.81 1014.77 1014.81
1010.81 1010.72 1010.56 1010.33 1010.05 1009.74 1009.40 1009.07 1008.76 1008.49 1008.31 1008.24 1008.31 1008.52 1008.86 1009.32 1009.86 1010.44 1011.00 1011.51 1011.94 1012.27 1012.53 1012.72 1012.90 1013.10 1013.33 1013.64 1014.00 1014.41 1014.83 1015.21 1015.53 1015.75 1015.86 1015.85 1015.74 1015.57 1015.36 1015.15 1014.98 1014.85 1014.79 1014.79
1011.28 1011.09 1010.78 1010.38 1009.91 1009.39 1008.88 1008.41 1008.01 1007.74 1007.62 1007.68 1007.93 1008.34 1008.90 1009.56 1010.27 1010.97 1011.62 1012.17 1012.61 1012.94 1013.18 1013.37 1013.53 1013.71 1013.94 1014.22 1014.56 1014.92 1015.27 1015.59 1015.84 1015.99 1016.04 1015.99 1015.85 1015.67 1015.46 1015.26 1015.10 1014.98 1014.92 1014.92
1011.47 1011.16 1010.71 1010.17 1009.54 1008.89 1008.26 1007.71 1007.29 1007.04 1007.01 1007.19 1007.60 1008.21 1008.95 1009.79 1010.65 1011.48 1012.22 1012.84 1013.33 1013.69 1013.94 1014.13 1014.29 1014.45 1014.65 1014.89 1015.16 1015.44 1015.71 1015.94 1016.10 1016.17 1016.17 1016.08 1015.94 1015.76 1015.59 1015.43 1015.30 1015.22 1015.19 1015.20
1011.34 1010.90 1010.34 1009.68 1008.97 1008.24 1007.57 1007.00 1006.60 1006.42 1006.47 1006.78 1007.33 1008.09 1008.99 1009.98 1010.97 1011.91 1012.75 1013.45 1014.00 1014.41 1014.70 1014.91 1015.07 1015.22 1015.38 1015.56 1015.75 1015.94 1016.11 1016.24 1016.31 1016.32 1016.26 1016.16 1016.03 1015.89 1015.77 1015.67 1015.61 1015.59 1015.60 1015.64
1010.91 1010.36 1009.71 1009.00 1008.25 1007.53 1006.88 1006.36 1006.03 1005.93 1006.08 1006.50 1007.16 1008.03 1009.04 1010.13 1011.23 1012.26 1013.18 1013.96 1014.57 1015.04 1015.38 1015.62 1015.80 1015.94 1016.06 1016.18 1016.30 1016.40 1016.47 1016.51 1016.51 1016.47 1016.39 1016.29 1016.19 1016.11 1016.05 1016.03 1016.05 1016.10 1016.16 1016.24
1010.25 1009.62 1008.94 1008.23 1007.53 1006.87 1006.31 1005.89 1005.67 1005.67 1005.92 1006.43 1007.17 1008.10 1009.17 1010.31 1011.46 1012.54 1013.52 1014.35 1015.02 1015.55 1015.93 1016.21 1016.41 1016.54 1016.65 1016.72 1016.77 1016.80 1016.81 1016.79 1016.74 1016.67 1016.59 1016.52 1016.47 1016.45 1016.47 1016.53 1016.62 1016.73 1016.84 1016.94
1009.47 1008.83 1008.19 1007.55 1006.96 1006.44 1006.02 1005.74 1005.64 1005.75 1006.09 1006.65 1007.43 1008.38 1009.45 1010.58 1011.72 1012.81 1013.79 1014.65 1015.36 1015.93 1016.35 1016.66 1016.88 1017.02 1017.12 1017.17 1017.18 1017.17 1017.14 1017.09 1017.03 1016.96 1016.91 1016.88 1016.89 1016.94 1017.02 1017.15 1017.29 1017.44 1017.57 1017.68
1008.71 1008.14 1007.60 1007.11 1006.68 1006.33 1006.10 1005.98 1006.02 1006.24 1006.64 1007.23 1007.99 1008.90 1009.92 1010.99 1012.07 1013.10 1014.06 1014.90 1015.62 1016.20 1016.65 1016.98 1017.22 1017.38 1017.48 1017.53 1017.54 1017.52 1017.49 1017.44 1017.40 1017.36 1017.36 1017.38 1017.44 1017.55 1017.68 1017.84 1018.01 1018.17 1018.31 1018.40
1008.13 1007.68 1007.30 1007.00 1006.78 1006.64 1006.60 1006.65 1006.83 1007.12 1007.56 1008.14 1008.85 1009.67 1010.58 1011.54 1012.51 1013.46 1014.34 1015.13 1015.82 1016.39 1016.85 1017.20 1017.46 1017.64 1017.76 1017.82 1017.85 1017.86 1017.86 1017.85 1017.85 1017.87 1017.91 1017.99 1018.10 1018.23 1018.39 1018.56 1018.72 1018.86 1018.96 1019.01
1007.81 1007.54 1007.36 1007.27 1007.27 1007.34 1007.48 1007.69 1007.97 1008.32 1008.76 1009.29 1009.92 1010.62 1011.39 1012.21 1013.04 1013.86 1014.64 1015.36 1016.00 1016.54 1016.99 1017.35 1017.63 1017.83 1017.98 1018.08 1018.15 1018.20 1018.25 1018.30 1018.36 1018.43 1018.53 1018.65 1018.79 1018.94 1019.09 1019.24 1019.36 1019.44 1019.48 1019.46
1007.82 1007.73 1007.75 1007.87 1008.07 1008.32 1008.62 1008.95 1009.30 1009.67 1010.09 1010.55 1011.06 1011.63 1012.25 1012.91 1013.60 1014.29 1014.97 1015.60 1016.18 1016.69 1017.13 1017.49 1017.77 1018.00 1018.18 1018.32 1018.44 1018.55 1018.65 1018.76 1018.88 1019.02 1019.16 1019.31 1019.46 1019.60 1019.72 1019.82 1019.88 1019.89 1019.85 1019.75
1008.12 1008.21 1008.41 1008.70 1009.06 1009.45 1009.85 1010.25 1010.64 1011.01 1011.37 1011.75 1012.15 1012.58 1013.06 1013.59 1014.14 1014.72 1015.30 1015.86 1016.38 1016.86 1017.28 1017.64 1017.94 1018.19 1018.39 1018.57 1018.74 1018.90 1019.06 1019.22 1019.40 1019.58 1019.75 1019.92 1020.06 1020.18 1020.25 1020.29 1020.27 1020.20 1020.08 1019.90
1008.67 1008.89 1009.22 1009.63 1010.09 1010.56 1011.02 1011.45 1011.83 1012.17 1012.47 1012.77 1013.07 1013.40 1013.76 1014.18 1014.63 1015.12 1015.63 1016.14 1016.63 1017.08 1017.49 1017.85 1018.15 1018.42 1018.65 1018.86 1019.06 1019.26 1019.46 1019.67 1019.88 1020.08 1020.28 1020.44 1020.57 1020.65 1020.67 1020.64 1020.55 1020.40 1020.20 1019.96
1009.37 1009.67 1010.08 1010.55 1011.05 1011.55 1012.02 1012.43 1012.78 1013.07 1013.33 1013.55 1013.78 1014.04 1014.33 1014.68 1015.08 1015.52 1016.00 1016.48 1016.95 1017.39 1017.79 1018.15 1018.46 1018.73 1018.97 1019.19 1019.41 1019.63 1019.85 1020.08 1020.31 1020.53 1020.72 1020.87 1020.97 1021.02 1020.99 1020.90 1020.74 1020.54 1020.28 1019.99
1010.15 1010.48 1010.90 1011.37 1011.86 1012.34 1012.78 1013.16 1013.47 1013.72 1013.93 1014.12 1014.31 1014.53 1014.80 1015.13 1015.52 1015.95 1016.42 1016.90 1017.37 1017.81 1018.21 1018.57 1018.87 1019.14 1019.37 1019.59 1019.80 1020.02 1020.24 1020.47 1020.69 1020.90 1021.08 1021.21 1021.29 1021.29 1021.23 1021.09 1020.89 1020.63 1020.34 1020.02
1010.94 1011.26 1011.64 1012.08 1012.52 1012.96 1013.35 1013.68 1013.95 1014.18 1014.36 1014.54 1014.73 1014.96 1015.25 1015.60 1016.00 1016.45 1016.94 1017.43 1017.91 1018.35 1018.75 1019.10 1019.39 1019.64 1019.85 1020.04 1020.23 1020.42 1020.62 1020.83 1021.03 1021.21 1021.37 1021.47 1021.51 1021.49 1021.39 1021.23 1021.00 1020.72 1020.41 1020.07
1011.72 1011.99 1012.32 1012.69 1013.08 1013.45 1013.79 1014.08 1014.33 1014.54 1014.74 1014.93 1015.16 1015.42 1015.75 1016.13 1016.58 1017.06 1017.57 1018.08 1018.57 1019.01 1019.39 1019.72 1019.99 1020.20 1020.38 1020.54 1020.68 1020.83 1020.99 1021.16 1021.32 1021.47 1021.59 1021.66 1021.68 1021.63 1021.51 1021.32 1021.08 1020.80 1020.48 1020.15
1012.47 1012.68 1012.95 1013.26 1013.59 1013.91 1014.21 1014.48 1014.72 1014.94 1015.16 1015.39 1015.66 1015.98 1016.35 1016.78 1017.26 1017.77 1018.30 1018.81 1019.29 1019.72 1020.08 1020.38 1020.61 1020.78 1020.92 1021.03 1021.13 1021.23 1021.34 1021.46 1021.57 1021.68 1021.75 1021.79 1021.78 1021.71 1021.57 1021.38 1021.14 1020.86 1020.55 1020.22
1013.19 1013.35 1013.57 1013.83 1014.11 1014.40 1014.68 1014.94 1015.19 1015.44 1015.69 1015.97 1016.28 1016.64 1017.06 1017.52 1018.02 1018.54 1019.06 1019.56 1020.01 1020.41 1020.74 1020.99 1021.18 1021.32 1021.41 1021.48 1021.54 1021.59 1021.66 1021.72 1021.79 1021.85 1021.88 1021.88 1021.84 1021.75 1021.60 1021.41 1021.17 1020.89 1020.60 1020.29
1013.88 1014.02 1014.20 1014.43 1014.69 1014.96 1015.23 1015.50 1015.77 1016.05 1016.34 1016.66 1017.01 1017.39 1017.83 1018.29 1018.78 1019.28 1019.77 1020.23 1020.65 1021.00 1021.28 1021.50 1021.65 1021.75 1021.81 1021.85 1021.87 1021.89 1021.92 1021.95 1021.97 1021.99 1021.99 1021.96 1021.89 1021.77 1021.62 1021.42 1021.18 1020.92 1020.63 1020.33
1014.53 1014.66 1014.83 1015.05 1015.30 1015.57 1015.85 1016.14 1016.44 1016.74 1017.06 1017.40 1017.76 1018.16 1018.58 1019.02 1019.48 1019.93 1020.36 1020.77 1021.12 1021.42 1021.66 1021.84 1021.97 1022.05 1022.09 1022.11 1022.12 1022.13 1022.14 1022.14 1022.14 1022.13 1022.09 1022.03 1021.94 1021.81 1021.64 1021.44 1021.21 1020.95 1020.68 1020.39
1015.11 1015.25 1015.43 1015.65 1015.91 1016.19 1016.49 1016.80 1017.11 1017.44 1017.77 1018.12 1018.48 1018.86 1019.24 1019.64 1020.03 1020.42 1020.78 1021.11 1021.41 1021.65 1021.85 1022.00 1022.12 1022.19 1022.24 1022.28 1022.30 1022.31 1022.32 1022.32 1022.31 1022.28 1022.23 1022.15 1022.04 1021.90 1021.72 1021.52 1021.29 1021.04 1020.77 1020.49
1015.60 1015.76 1015.96 1016.19 1016.47 1016.76 1017.08 1017.41 1017.74 1018.08 1018.42 1018.76 1019.10 1019.44 1019.78 1020.11 1020.43 1020.73 1021.02 1021.28 1021.51 1021.71 1021.88 1022.02 1022.14 1022.23 1022.31 1022.37 1022.42 1022.46 1022.49 1022.50 1022.50 1022.47 1022.41 1022.33 1022.21 1022.06 1021.88 1021.67 1021.44 1021.20 1020.94 1020.66
1015.97 1016.16 1016.38 1016.64 1016.93 1017.24 1017.58 1017.92 1018.27 1018.62 1018.95 1019.28 1019.60 1019.89 1020.18 1020.44 1020.69 1020.92 1021.13 1021.33 1021.51 1021.67 1021.82 1021.96 1022.09 1022.21 1022.32 1022.43 1022.52 1022.60 1022.67 1022.71 1022.72 1022.70 1022.65 1022.56 1022.44 1022.29 1022.11 1021.91 1021.68 1021.44 1021.18 1020.91
1016.24 1016.45 1016.69 1016.97 1017.28 1017.61 1017.97 1018.33 1018.69 1019.05 1019.39 1019.71 1020.00 1020.26 1020.50 1020.71 1020.89 1021.06 1021.21 1021.35 1021.49 1021.62 1021.76 1021.90 1022.05 1022.20 1022.35 1022.50 1022.64 1022.76 1022.86 1022.93 1022.96 1022.96 1022.92 1022.83 1022.71 1022.56 1022.39 1022.19 1021.97 1021.74 1021.48 1021.21
Thickness
5728 5739 5743 5744 5751 5755 5748 5742 5732 5737 5741 5748 5755 5757 5759 5758 5755 5752 5749 5748 5747 5745 5743 5743 5740 5739 5737 5735 5732 5729 5724 5720 5718 5716 5715 5714 5712 5710 5709 5707 5706 5704 5702 5700
5718 5734 5737 5739 5749 5753 5753 5752 5747 5744 5741 5756 5757 5756 5753 5751 5749 5744 5741 5740 5739 5737 5735 5734 5733 5731 5729 5726 5723 5720 5717 5713 5711 5709 5707 5705 5703 5702 5701 5699 5699 5697 5695 5693
5696 5714 5722 5717 5734 5740 5745 5751 5749 5739 5746 5753 5747 5747 5745 5744 5742 5737 5733 5731 5729 5726 5725 5724 5723 5722 5718 5716 5714 5711 5707 5704 5702 5699 5696 5694 5693 5692 5691 5690 5689 5688 5686 5684
5680 5693 5686 5715 5735 5741 5741 5748 5752 5752 5751 5749 5742 5738 5738 5738 5735 5730 5725 5721 5718 5716 5714 5712 5711 5710 5707 5705 5703 5699 5695 5692 5690 5688 5685 5683 5683 5681 5679 5678 5677 5675 5673 5671
5666 5668 5683 5708 5720 5723 5722 5728 5743 5745 5741 5738 5736 5729 5721 5724 5725 5721 5716 5712 5709 5706 5704 5701 5699 5698 5696 5693 5690 5687 5683 5680 5679 5677 5674 5672 5671 5669 5667 5666 5663 5662 5660 5657
5659 5661 5666 5692 5711 5721 5717 5708 5731 5736 5734 5732 5730 5713 5704 5710 5711 5709 5706 5703 5700 5697 5694 5690 5687 5687 5684 5679 5676 5673 5670 5669 5667 5665 5663 5661 5659 5658 5656 5654 5651 5650 5647 5644
5653 5654 5669 5692 5703 5709 5692 5701 5719 5724 5725 5722 5717 5714 5705 5702 5700 5698 5696 5692 5690 5687 5682 5678 5676 5675 5670 5667 5663 5661 5660 5658 5656 5654 5652 5650 5648 5646 5644 5641 5638 5636 5633 5631
5650 5650 5662 5689 5693 5692 5697 5709 5715 5713 5712 5709 5705 5700 5695 5693 5690 5688 5685 5682 5680 5677 5671 5667 5665 5664 5659 5655 5653 5652 5650 5648 5645 5644 5643 5640 5637 5635 5632 5629 5626 5623 5620 5617
5655 5661 5675 5685 5689 5695 5700 5703 5707 5705 5701 5701 5695 5689 5685 5682 5680 5678 5675 5671 5669 5667 5662 5658 5655 5653 5649 5645 5644 5642 5639 5636 5634 5633 5631 5629 5626 5623 5620 5617 5614 5610 5606 5602
5657 5664 5673 5681 5688 5692 5696 5700 5700 5699 5692 5689 5687 5682 5676 5673 5671 5668 5664 5661 5659 5656 5652 5647 5645 5643 5639 5637 5634 5632 5628 5625 5623 5620 5619 5617 5615 5612 5609 5605 5601 5597 5591 5586
5657 5664 5670 5677 5682 5686 5690 5692 5690 5686 5683 5681 5678 5672 5668 5664 5661 5659 5655 5652 5650 5646 5641 5637 5634 5632 5629 5627 5624 5620 5617 5615 5612 5610 5607 5605 5602 5599 5596 5592 5588 5583 5577 5571
5656 5663 5663 5667 5675 5682 5682 5680 5679 5676 5670 5668 5668 5663 5658 5654 5652 5649 5646 5643 5639 5635 5631 5627 5623 5620 5618 5616 5613 5609 5606 5603 5600 5597 5595 5592 5588 5583 5580 5577 5573 5568 5563 5556
5664 5665 5666 5667 5670 5673 5673 5671 5669 5666 5663 5658 5655 5653 5650 5645 5642 5640 5636 5632 5629 5625 5621 5616 5613 5609 5607 5605 5602 5598 5594 5591 5588 5585 5582 5578 5574 5569 5562 5558 5555 5550 5545 5539
5666 5664 5658 5659 5660 5662 5663 5662 5660 5655 5651 5649 5646 5643 5641 5637 5633 5630 5626 5623 5620 5615 5610 5606 5602 5598 5596 5594 5590 5586 5583 5581 5577 5572 5568 5563 5558 5553 5547 5541 5535 5529 5525 5520
5661 5661 5657 5655 5655 5654 5653 5652 5647 5642 5640 5637 5636 5634 5631 5627 5623 5619 5616 5614 5609 5604 5599 5595 5591 5586 5585 5582 5578 5574 5571 5567 5563 5558 5553 5547 5542 5536 5530 5524 5517 5511 5506 5501
5653 5652 5651 5649 5646 5644 5643 5641 5637 5633 5631 5628 5626 5623 5620 5617 5612 5608 5605 5602 5597 5590 5586 5583 5578 5574 5572 5569 5566 5562 5558 5556 5550 5542 5536 5530 5524 5518 5511 5505 5499 5493 5487 5483
5645 5640 5639 5638 5636 5634 5633 5631 5629 5625 5622 5619 5616 5614 5610 5606 5601 5596 5592 5589 5585 5579 5574 5570 5566 5562 5559 5556 5551 5547 5542 5537 5533 5525 5518 5512 5506 5499 5493 5487 5481 5475 5471 5467
5641 5638 5636 5633 5630 5626 5624 5622 5619 5616 5613 5610 5607 5603 5598 5594 5589 5584 5580 5575 5571 5565 5560 5557 5553 5549 5545 5541 5536 5531 5525 5519 5513 5506 5500 5494 5488 5482 5476 5471 5466 5461 5456 5453
5631 5629 5627 5624 5622 5618 5615 5611 5608 5605 5603 5600 5595 5590 5586 5582 5578 5573 5568 5563 5556 5549 5544 5541 5538 5533 5528 5525 5520 5514 5507 5501 5494 5488 5483 5478 5472 5466 5461 5456 5451 5447 5444 5441
5620 5619 5617 5614 5612 5608 5604 5601 5598 5594 5591 5589 5584 5579 5574 5569 5565 5559 5553 5546 5540 5535 5530 5526 5522 5516 5512 5508 5504 5497 5490 5484 5478 5472 5467 5462 5456 5451 5447 5443 5439 5436 5433 5430
5607 5606 5604 5601 5599 5596 5594 5591 5588 5584 5580 5578 5572 5567 5561 5555 5551 5545 5538 5529 5523 5520 5516 5512 5506 5501 5496 5492 5487 5480 5474 5468 5463 5458 5453 5448 5443 5439 5434 5431 5428 5426 5424 5421
5596 5594 5592 5590 5587 5584 5582 5580 5577 5574 5569 5565 5560 5555 5548 5542 5536 5529 5523 5517 5511 5508 5502 5497 5492 5487 5482 5477 5471 5465 5460 5455 5449 5445 5440 5436 5431 5427 5424 5421 5419 5417 5415 5414
5585 5583 5581 5578 5575 5572 5570 5568 5566 5562 5558 5553 5548 5543 5537 5529 5523 5517 5508 5503 5500 5495 5490 5484 5480 5475 5469 5463 5458 5453 5448 5443 5438 5434 5429 5425 5422 5418 5415 5413 5411 5409 5407 5406
5574 5572 5570 5568 5566 5563 5559 5556 5554 5550 5546 5542 5537 5532 5525 5517 5509 5505 5500 5494 5489 5483 5477 5472 5468 5463 5458 5451 5446 5441 5437 5432 5428 5424 5420 5417 5413 5410 5407 5405 5403 5401 5400 5399
5565 5563 5561 5559 5555 5552 5548 5545 5541 5537 5533 5528 5524 5519 5514 5508 5501 5494 5489 5483 5478 5473 5467 5463 5458 5453 5447 5442 5437 5432 5427 5423 5419 5414 5411 5407 5404 5402 5399 5397 5395 5394 5393 5392
5555 5553 5550 5548 5545 5541 5538 5534 5530 5525 5520 5515 5510 5506 5501 5496 5491 5485 5479 5474 5469 5464 5458 5453 5449 5444 5438 5433 5428 5423 5418 5414 5410 5406 5402 5399 5397 5394 5392 5390 5388 5387 5386 5386
5544 5542 5539 5536 5534 5531 5528 5523 5518 5514 5510 5505 5500 5495 5491 5486 5481 5475 5470 5465 5460 5456 5450 5446 5441 5436 5430 5425 5420 5415 5410 5406 5402 5398 5395 5392 5390 5387 5385 5384 5382 5381 5380 5380